Flag for U.S.A. Weather past 2 weeks in Boston, Massachusetts, U.S.A.

Now
59 °F

Light rain. Broken clouds.


Feels Like: 57 °F
Forecast: 50 / 62 °F
Wind: 10 mph from East

Location: Logan International Airport

Current Time: Oct 21, 2014 at 2:54:59 PM

Latest Report: Oct 21, 2014 at 1:54 PM


Visibility: 10 mi

Pressure: 29.91 "Hg

Humidity: 87%

Dew point: 55 °F

Location of BostonLocation

Historic Weather in Boston — Graph

°F

Boston temperature yesterday

Maximum temperature yesterday: 57 °F (at 2:54 PM)
Minimum temperature yesterday: 39 °F (at 7:54 AM)
Average temperature yesterday: 48 °F

Past Weeks' High & Low Weather Summary

 TemperatureHumidityPressure
High81 °F (Oct 15, 1:54 PM)100% (Oct 16, 8:01 AM)30.37 "Hg (Oct 16, 8:01 AM)
Low39 °F (Oct 20, 7:54 AM)31% (Oct 9, 1:54 PM)29.48 "Hg (Oct 18, 4:54 PM)
Average59 °F70%29.98 "Hg
* Reported Oct 6 1:54 PM — Oct 21 1:54 PM, Boston, Weather by CustomWeather, © 2014

Note: Actual official high and low records may vary slightly from our data, if they occured in-between our weather recording intervals... More about our weather records

Advertising

Boston weather history for previous 24 hours

 ConditionsComfort  
Time TempWeatherWind HumidityBarometerVisibility
1:54 PM
Oct 21
59 °FLight rain. Broken clouds.10 mph87%29.91 "Hg10 mi
12:54 PM62 °FBroken clouds.7 mph80%29.93 "Hg10 mi
11:54 AM60 °FCloudy.5 mph83%29.95 "Hg10 mi
10:54 AM59 °FCloudy.7 mph81%29.96 "Hg10 mi
9:54 AM58 °FCloudy.7 mph84%29.97 "Hg10 mi
8:54 AM57 °FCloudy.7 mph90%29.98 "Hg10 mi
7:54 AM56 °FMostly cloudy.9 mph90%29.97 "Hg10 mi
6:54 AM53 °FMostly cloudy.6 mph89%29.96 "Hg10 mi
5:54 AM52 °FMostly cloudy.No wind93%29.98 "Hg10 mi
4:54 AM51 °FOvercast.5 mph89%29.98 "Hg10 mi
3:54 AM50 °FPassing clouds.No wind83%29.98 "Hg10 mi
2:54 AM50 °FClear.3 mph80%29.99 "Hg10 mi
1:54 AM49 °FClear.5 mph84%30.00 "Hg10 mi
12:54 AM50 °FClear.6 mph74%30.01 "Hg10 mi
11:54 PM
Oct 20
51 °FClear.5 mph69%30.01 "Hg10 mi
10:54 PM51 °FPassing clouds.5 mph66%30.01 "Hg10 mi
9:54 PM51 °FPassing clouds.7 mph63%30.01 "Hg10 mi
8:54 PM51 °FPassing clouds.8 mph59%30.01 "Hg10 mi
7:54 PM53 °FPassing clouds.9 mph51%29.99 "Hg10 mi
6:54 PM54 °FPassing clouds.9 mph45%29.99 "Hg10 mi
5:54 PM55 °FPartly sunny.12 mph42%29.97 "Hg10 mi
4:54 PM55 °FScattered clouds.15 mph40%29.97 "Hg10 mi
3:54 PM56 °FPartly sunny.17 mph37%29.96 "Hg10 mi
2:54 PM57 °FScattered clouds.18 mph36%29.97 "Hg10 mi
Weather by CustomWeather, © 2014

See weather overviewHow to use our weather pages